Year,Month,Day,Hour,Minute,Value (Times are PST for temperature in C)
2018,04,23,00,00,2.90
2018,04,23,00,01,2.90
2018,04,23,00,02,2.90
2018,04,23,00,03,2.90
2018,04,23,00,04,2.80
2018,04,23,00,05,2.80
2018,04,23,00,06,2.80
2018,04,23,00,07,2.80
2018,04,23,00,08,2.80
2018,04,23,00,09,2.80
2018,04,23,00,10,2.80
2018,04,23,00,11,2.80
2018,04,23,00,12,2.80
2018,04,23,00,13,2.80
2018,04,23,00,14,2.80
2018,04,23,00,15,2.70
2018,04,23,00,16,2.70
2018,04,23,00,17,2.70
2018,04,23,00,18,2.70
2018,04,23,00,19,2.70
2018,04,23,00,20,2.70
2018,04,23,00,21,2.70
2018,04,23,00,22,2.70
2018,04,23,00,23,2.70
2018,04,23,00,24,2.70
2018,04,23,00,25,2.70
2018,04,23,00,26,2.70
2018,04,23,00,27,2.70
2018,04,23,00,28,2.70
2018,04,23,00,29,2.70
2018,04,23,00,30,2.60
2018,04,23,00,31,2.60
2018,04,23,00,32,2.60
2018,04,23,00,33,2.60
2018,04,23,00,34,2.60
2018,04,23,00,35,2.60
2018,04,23,00,36,2.60
2018,04,23,00,37,2.60
2018,04,23,00,38,2.60
2018,04,23,00,39,2.50
2018,04,23,00,40,2.50
2018,04,23,00,41,2.50
2018,04,23,00,42,2.50
2018,04,23,00,43,2.50
2018,04,23,00,44,2.50
2018,04,23,00,45,2.40
2018,04,23,00,46,2.40
2018,04,23,00,47,2.40
2018,04,23,00,48,2.40
2018,04,23,00,49,2.40
2018,04,23,00,50,2.40
2018,04,23,00,51,2.40
2018,04,23,00,52,2.40
2018,04,23,00,53,2.40
2018,04,23,00,54,2.40
2018,04,23,00,55,2.40
2018,04,23,00,56,2.40
2018,04,23,00,57,2.40
2018,04,23,00,58,2.30
2018,04,23,00,59,2.30
2018,04,23,01,00,2.30
2018,04,23,01,01,2.30
2018,04,23,01,02,2.30
2018,04,23,01,03,2.30
2018,04,23,01,04,2.30
2018,04,23,01,05,2.30
2018,04,23,01,06,2.30
2018,04,23,01,07,2.30
2018,04,23,01,08,2.30
2018,04,23,01,09,2.30
2018,04,23,01,10,2.30
2018,04,23,01,11,2.20
2018,04,23,01,12,2.20
2018,04,23,01,13,2.20
2018,04,23,01,14,2.20
2018,04,23,01,15,2.20
2018,04,23,01,16,2.20
2018,04,23,01,17,2.20
2018,04,23,01,18,2.20
2018,04,23,01,19,2.20
2018,04,23,01,20,2.20
2018,04,23,01,21,2.10
2018,04,23,01,22,2.10
2018,04,23,01,23,2.10
2018,04,23,01,24,2.10
2018,04,23,01,25,2.10
2018,04,23,01,26,2.10
2018,04,23,01,27,2.10
2018,04,23,01,28,2.10
2018,04,23,01,29,2.10
2018,04,23,01,30,2.10
2018,04,23,01,31,2.10
2018,04,23,01,32,2.10
2018,04,23,01,33,2.10
2018,04,23,01,34,2.10
2018,04,23,01,35,2.00
2018,04,23,01,36,2.00
2018,04,23,01,37,2.00
2018,04,23,01,38,2.00
2018,04,23,01,39,2.10
2018,04,23,01,40,2.10
2018,04,23,01,41,2.10
2018,04,23,01,42,2.10
2018,04,23,01,43,2.10
2018,04,23,01,44,2.10
2018,04,23,01,45,2.10
2018,04,23,01,46,2.10
2018,04,23,01,47,2.10
2018,04,23,01,48,2.10
2018,04,23,01,49,2.10
2018,04,23,01,50,2.10
2018,04,23,01,51,2.10
2018,04,23,01,52,2.10
2018,04,23,01,53,2.10
2018,04,23,01,54,2.10
2018,04,23,01,55,2.10
2018,04,23,01,56,2.10
2018,04,23,01,57,2.10
2018,04,23,01,58,2.10
2018,04,23,01,59,2.00
2018,04,23,02,00,2.00
2018,04,23,02,01,2.00
2018,04,23,02,02,2.00
2018,04,23,02,03,1.90
2018,04,23,02,04,1.90
2018,04,23,02,05,1.90
2018,04,23,02,06,1.90
2018,04,23,02,07,1.80
2018,04,23,02,08,1.80
2018,04,23,02,09,1.80
2018,04,23,02,10,1.80
2018,04,23,02,11,1.80
2018,04,23,02,12,1.80
2018,04,23,02,13,1.80
2018,04,23,02,14,1.80
2018,04,23,02,15,1.80
2018,04,23,02,16,1.80
2018,04,23,02,17,1.70
2018,04,23,02,18,1.70
2018,04,23,02,19,1.70
2018,04,23,02,20,1.70
2018,04,23,02,21,1.70
2018,04,23,02,22,1.70
2018,04,23,02,23,1.70
2018,04,23,02,24,1.70
2018,04,23,02,25,1.60
2018,04,23,02,26,1.60
2018,04,23,02,27,1.60
2018,04,23,02,28,1.60
2018,04,23,02,29,1.60
2018,04,23,02,30,1.60
2018,04,23,02,31,1.60
2018,04,23,02,32,1.60
2018,04,23,02,33,1.60
2018,04,23,02,34,1.60
2018,04,23,02,35,1.60
2018,04,23,02,36,1.60
2018,04,23,02,37,1.60
2018,04,23,02,38,1.50
2018,04,23,02,39,1.50
2018,04,23,02,40,1.50
2018,04,23,02,41,1.50
2018,04,23,02,42,1.50
2018,04,23,02,43,1.50
2018,04,23,02,44,1.50
2018,04,23,02,45,1.50
2018,04,23,02,46,1.50
2018,04,23,02,47,1.50
2018,04,23,02,48,1.50
2018,04,23,02,49,1.50
2018,04,23,02,50,1.40
2018,04,23,02,51,1.40
2018,04,23,02,52,1.40
2018,04,23,02,53,1.40
2018,04,23,02,54,1.40
2018,04,23,02,55,1.40
2018,04,23,02,56,1.40
2018,04,23,02,57,1.40
2018,04,23,02,58,1.30
2018,04,23,02,59,1.30
2018,04,23,03,00,1.30
2018,04,23,03,01,1.30
2018,04,23,03,02,1.30
2018,04,23,03,03,1.30
2018,04,23,03,04,1.30
2018,04,23,03,05,1.30
2018,04,23,03,06,1.30
2018,04,23,03,07,1.30
2018,04,23,03,08,1.30
2018,04,23,03,09,1.30
2018,04,23,03,10,1.30
2018,04,23,03,11,1.30
2018,04,23,03,12,1.30
2018,04,23,03,13,1.30
2018,04,23,03,14,1.30
2018,04,23,03,15,1.30
2018,04,23,03,16,1.30
2018,04,23,03,17,1.30
2018,04,23,03,18,1.30
2018,04,23,03,19,1.30
2018,04,23,03,20,1.30
2018,04,23,03,21,1.30
2018,04,23,03,22,1.30
2018,04,23,03,23,1.30
2018,04,23,03,24,1.30
2018,04,23,03,25,1.30
2018,04,23,03,26,1.30
2018,04,23,03,27,1.30
2018,04,23,03,28,1.30
2018,04,23,03,29,1.30
2018,04,23,03,30,1.30
2018,04,23,03,31,1.30
2018,04,23,03,32,1.30
2018,04,23,03,33,1.30
2018,04,23,03,34,1.30
2018,04,23,03,35,1.30
2018,04,23,03,36,1.20
2018,04,23,03,37,1.20
2018,04,23,03,38,1.20
2018,04,23,03,39,1.20
2018,04,23,03,40,1.20
2018,04,23,03,41,1.20
2018,04,23,03,42,1.20
2018,04,23,03,43,1.20
2018,04,23,03,44,1.20
2018,04,23,03,45,1.20
2018,04,23,03,46,1.20
2018,04,23,03,47,1.20
2018,04,23,03,48,1.20
2018,04,23,03,49,1.20
2018,04,23,03,50,1.20
2018,04,23,03,51,1.20
2018,04,23,03,52,1.20
2018,04,23,03,53,1.20
2018,04,23,03,54,1.20
2018,04,23,03,55,1.20
2018,04,23,03,56,1.20
2018,04,23,03,57,1.20
2018,04,23,03,58,1.20
2018,04,23,03,59,1.20
2018,04,23,04,00,1.10
2018,04,23,04,01,1.10
2018,04,23,04,02,1.10
2018,04,23,04,03,1.10
2018,04,23,04,04,1.10
2018,04,23,04,05,1.10
2018,04,23,04,06,1.10
2018,04,23,04,07,1.10
2018,04,23,04,08,1.10
2018,04,23,04,09,1.10
2018,04,23,04,10,1.10
2018,04,23,04,11,1.00
2018,04,23,04,12,1.00
2018,04,23,04,13,1.00
2018,04,23,04,14,1.00
2018,04,23,04,15,1.00
2018,04,23,04,16,1.00
2018,04,23,04,17,1.00
2018,04,23,04,18,1.00
2018,04,23,04,19,1.00
2018,04,23,04,20,1.00
2018,04,23,04,21,0.90
2018,04,23,04,22,0.90
2018,04,23,04,23,1.00
2018,04,23,04,24,1.00
2018,04,23,04,25,0.90
2018,04,23,04,26,0.90
2018,04,23,04,27,0.90
2018,04,23,04,28,1.00
2018,04,23,04,29,0.90
2018,04,23,04,30,0.90
2018,04,23,04,31,0.90
2018,04,23,04,32,0.90
2018,04,23,04,33,0.90
2018,04,23,04,34,1.00
2018,04,23,04,35,1.00
2018,04,23,04,36,1.00
2018,04,23,04,37,1.00
2018,04,23,04,38,1.00
2018,04,23,04,39,1.00
2018,04,23,04,40,1.00
2018,04,23,04,41,1.10
2018,04,23,04,42,1.10
2018,04,23,04,43,1.10
2018,04,23,04,44,1.10
2018,04,23,04,45,1.10
2018,04,23,04,46,1.10
2018,04,23,04,47,1.10
2018,04,23,04,48,1.10
2018,04,23,04,49,1.10
2018,04,23,04,50,1.10
2018,04,23,04,51,1.10
2018,04,23,04,52,1.10
2018,04,23,04,53,1.10
2018,04,23,04,54,1.10
2018,04,23,04,55,1.10
2018,04,23,04,56,1.10
2018,04,23,04,57,1.10
2018,04,23,04,58,1.10
2018,04,23,04,59,1.10
2018,04,23,05,00,1.20
2018,04,23,05,01,1.20
2018,04,23,05,02,1.20
2018,04,23,05,03,1.20
2018,04,23,05,04,1.20
2018,04,23,05,05,1.20
2018,04,23,05,06,1.20
2018,04,23,05,07,1.20
2018,04,23,05,08,1.20
2018,04,23,05,09,1.20
2018,04,23,05,10,1.20
2018,04,23,05,11,1.20
2018,04,23,05,12,1.20
2018,04,23,05,13,1.20
2018,04,23,05,14,1.20
2018,04,23,05,15,1.20
2018,04,23,05,16,1.20
2018,04,23,05,17,1.30
2018,04,23,05,18,1.30
2018,04,23,05,19,1.30
2018,04,23,05,20,1.30
2018,04,23,05,21,1.30
2018,04,23,05,22,1.30
2018,04,23,05,23,1.30
2018,04,23,05,24,1.30
2018,04,23,05,25,1.30
2018,04,23,05,26,1.30
2018,04,23,05,27,1.30
2018,04,23,05,28,1.30
2018,04,23,05,29,1.30
2018,04,23,05,30,1.30
2018,04,23,05,31,1.30
2018,04,23,05,32,1.30
2018,04,23,05,33,1.30
2018,04,23,05,34,1.40
2018,04,23,05,35,1.40
2018,04,23,05,36,1.40
2018,04,23,05,37,1.40
2018,04,23,05,38,1.40
2018,04,23,05,39,1.40
2018,04,23,05,40,1.40
2018,04,23,05,41,1.40
2018,04,23,05,42,1.50
2018,04,23,05,43,1.50
2018,04,23,05,44,1.50
2018,04,23,05,45,1.50
2018,04,23,05,46,1.50
2018,04,23,05,47,1.50
2018,04,23,05,48,1.50
2018,04,23,05,49,1.60
2018,04,23,05,50,1.50
2018,04,23,05,51,1.60
2018,04,23,05,52,1.60
2018,04,23,05,53,1.60
2018,04,23,05,54,1.60
2018,04,23,05,55,1.60
2018,04,23,05,56,1.60
2018,04,23,05,57,1.60
2018,04,23,05,58,1.60
2018,04,23,05,59,1.60
2018,04,23,06,00,1.60
2018,04,23,06,01,1.60
2018,04,23,06,02,1.60
2018,04,23,06,03,1.70
2018,04,23,06,04,1.70
2018,04,23,06,05,1.70
2018,04,23,06,06,1.70
2018,04,23,06,07,1.70
2018,04,23,06,08,1.70
2018,04,23,06,09,1.70
2018,04,23,06,10,1.70
2018,04,23,06,11,1.70
2018,04,23,06,12,1.70
2018,04,23,06,13,1.80
2018,04,23,06,14,1.80
2018,04,23,06,15,1.80
2018,04,23,06,16,1.80
2018,04,23,06,17,1.80
2018,04,23,06,18,1.80
2018,04,23,06,19,1.80
2018,04,23,06,20,1.80
2018,04,23,06,21,1.80
2018,04,23,06,22,1.80
2018,04,23,06,23,1.80
2018,04,23,06,24,1.80
2018,04,23,06,25,1.80
2018,04,23,06,26,1.80
2018,04,23,06,27,1.90
2018,04,23,06,28,1.90
2018,04,23,06,29,1.90
2018,04,23,06,30,1.90
2018,04,23,06,31,1.90
2018,04,23,06,32,1.90
2018,04,23,06,33,1.90
2018,04,23,06,34,1.90
2018,04,23,06,35,1.90
2018,04,23,06,36,1.90
2018,04,23,06,37,1.90
2018,04,23,06,38,1.90
2018,04,23,06,39,1.90
2018,04,23,06,40,1.90
2018,04,23,06,41,1.90
2018,04,23,06,42,1.90
2018,04,23,06,43,1.90
2018,04,23,06,44,2.00
2018,04,23,06,45,2.00
2018,04,23,06,46,2.00
2018,04,23,06,47,2.00
2018,04,23,06,48,2.00
2018,04,23,06,49,2.00
2018,04,23,06,50,2.00
2018,04,23,06,51,2.00
2018,04,23,06,52,2.00
2018,04,23,06,53,2.00
2018,04,23,06,54,2.00
2018,04,23,06,55,2.00
2018,04,23,06,56,2.00
2018,04,23,06,57,2.10
2018,04,23,06,58,2.00
2018,04,23,06,59,2.10
2018,04,23,07,00,2.10
2018,04,23,07,01,2.10
2018,04,23,07,02,2.10
2018,04,23,07,03,2.10
2018,04,23,07,04,2.10
2018,04,23,07,05,2.10
2018,04,23,07,06,2.10
2018,04,23,07,07,2.20
2018,04,23,07,08,2.20
2018,04,23,07,09,2.20
2018,04,23,07,10,2.20
2018,04,23,07,11,2.20
2018,04,23,07,12,2.30
2018,04,23,07,13,2.30
2018,04,23,07,14,2.30
2018,04,23,07,15,2.40
2018,04,23,07,16,2.40
2018,04,23,07,17,2.40
2018,04,23,07,18,2.40
2018,04,23,07,19,2.40
2018,04,23,07,20,2.40
2018,04,23,07,21,2.40
2018,04,23,07,22,2.50
2018,04,23,07,23,2.50
2018,04,23,07,24,2.50
2018,04,23,07,25,2.50
2018,04,23,07,26,2.60
2018,04,23,07,27,2.60
2018,04,23,07,28,2.60
2018,04,23,07,29,2.60
2018,04,23,07,30,2.60
2018,04,23,07,31,2.70
2018,04,23,07,32,2.70
2018,04,23,07,33,2.70
2018,04,23,07,34,2.80
2018,04,23,07,35,2.80
2018,04,23,07,36,2.80
2018,04,23,07,37,2.90
2018,04,23,07,38,2.90
2018,04,23,07,39,3.00
2018,04,23,07,40,3.00
2018,04,23,07,41,3.10
2018,04,23,07,42,3.20
2018,04,23,07,43,3.30
2018,04,23,07,44,3.50
2018,04,23,07,45,3.60
2018,04,23,07,46,3.60
2018,04,23,07,47,3.70
2018,04,23,07,48,3.80
2018,04,23,07,49,3.80
2018,04,23,07,50,3.90
2018,04,23,07,51,3.90
2018,04,23,07,52,4.00
2018,04,23,07,53,4.00
2018,04,23,07,54,4.10
2018,04,23,07,55,4.20
2018,04,23,07,56,4.30
2018,04,23,07,57,4.40
2018,04,23,07,58,4.50
2018,04,23,07,59,4.70
2018,04,23,08,00,4.80
2018,04,23,08,01,5.00
2018,04,23,08,02,5.10
2018,04,23,08,03,5.20
2018,04,23,08,04,5.40
2018,04,23,08,05,5.50
2018,04,23,08,06,5.70
2018,04,23,08,07,5.90
2018,04,23,08,08,6.10
2018,04,23,08,09,6.30
2018,04,23,08,10,6.50
2018,04,23,08,11,6.60
2018,04,23,08,12,6.80
2018,04,23,08,13,7.10
2018,04,23,08,14,7.30
2018,04,23,08,15,7.40
2018,04,23,08,16,7.60
2018,04,23,08,17,7.70
2018,04,23,08,18,7.80
2018,04,23,08,19,8.00
2018,04,23,08,20,8.10
2018,04,23,08,21,8.20
2018,04,23,08,22,8.30
2018,04,23,08,23,8.40
2018,04,23,08,24,8.60
2018,04,23,08,25,8.70
2018,04,23,08,26,8.80
2018,04,23,08,27,8.90
2018,04,23,08,28,9.10
2018,04,23,08,29,9.20
2018,04,23,08,30,9.30
2018,04,23,08,31,9.40
2018,04,23,08,32,9.50
2018,04,23,08,33,9.60
2018,04,23,08,34,9.80
2018,04,23,08,35,9.90
2018,04,23,08,36,10.00
2018,04,23,08,37,10.10
2018,04,23,08,38,10.20
2018,04,23,08,39,10.20
2018,04,23,08,40,10.30
2018,04,23,08,41,10.30
2018,04,23,08,42,10.40
2018,04,23,08,43,10.50
2018,04,23,08,44,10.50
2018,04,23,08,45,10.60
2018,04,23,08,46,10.70
2018,04,23,08,47,10.70
2018,04,23,08,48,10.80
2018,04,23,08,49,10.80
2018,04,23,08,50,10.90
2018,04,23,08,51,11.00
2018,04,23,08,52,11.00
2018,04,23,08,53,11.10
2018,04,23,08,54,11.10
2018,04,23,08,55,11.10
2018,04,23,08,56,11.20
2018,04,23,08,57,11.20
2018,04,23,08,58,11.30
2018,04,23,08,59,11.30
2018,04,23,09,00,11.30
2018,04,23,09,01,11.30
2018,04,23,09,02,11.30
2018,04,23,09,03,11.40
2018,04,23,09,04,11.40
2018,04,23,09,05,11.40
2018,04,23,09,06,11.40
2018,04,23,09,07,11.40
2018,04,23,09,08,11.50
2018,04,23,09,09,11.50
2018,04,23,09,10,11.60
2018,04,23,09,11,11.60
2018,04,23,09,12,11.60
2018,04,23,09,13,11.70
2018,04,23,09,14,11.70
2018,04,23,09,15,11.70
2018,04,23,09,16,11.70
2018,04,23,09,17,11.70
2018,04,23,09,18,11.80
2018,04,23,09,19,11.80
2018,04,23,09,20,11.80
2018,04,23,09,21,11.80
2018,04,23,09,22,11.80
2018,04,23,09,23,11.90
2018,04,23,09,24,12.00
2018,04,23,09,25,12.00
2018,04,23,09,26,12.10
2018,04,23,09,27,12.10
2018,04,23,09,28,12.10
2018,04,23,09,29,12.10
2018,04,23,09,30,12.10
2018,04,23,09,31,12.10
2018,04,23,09,32,12.20
2018,04,23,09,33,12.20
2018,04,23,09,34,12.20
2018,04,23,09,35,12.30
2018,04,23,09,36,12.30
2018,04,23,09,37,12.40
2018,04,23,09,38,12.40
2018,04,23,09,39,12.50
2018,04,23,09,40,12.50
2018,04,23,09,41,12.50
2018,04,23,09,42,12.50
2018,04,23,09,43,12.60
2018,04,23,09,44,12.60
2018,04,23,09,45,12.70
2018,04,23,09,46,12.70
2018,04,23,09,47,12.80
2018,04,23,09,48,12.80
2018,04,23,09,49,12.80
2018,04,23,09,50,12.80
2018,04,23,09,51,12.80
2018,04,23,09,52,12.90
2018,04,23,09,53,12.90
2018,04,23,09,54,13.00
2018,04,23,09,55,13.10
2018,04,23,09,56,13.10
2018,04,23,09,57,13.10
2018,04,23,09,58,13.10
2018,04,23,09,59,13.00
2018,04,23,10,00,13.00
2018,04,23,10,01,13.10
2018,04,23,10,02,13.10
2018,04,23,10,03,13.10
2018,04,23,10,04,13.10
2018,04,23,10,05,13.20
2018,04,23,10,06,13.10
2018,04,23,10,07,13.10
2018,04,23,10,08,13.10
2018,04,23,10,09,13.20
2018,04,23,10,10,13.20
2018,04,23,10,11,13.30
2018,04,23,10,12,13.40
2018,04,23,10,13,13.50
2018,04,23,10,14,13.60
2018,04,23,10,15,13.70
2018,04,23,10,16,13.70
2018,04,23,10,17,13.80
2018,04,23,10,18,13.80
2018,04,23,10,19,13.80
2018,04,23,10,20,13.80
2018,04,23,10,21,13.70
2018,04,23,10,22,13.60
2018,04,23,10,23,13.60
2018,04,23,10,24,13.60
2018,04,23,10,25,13.60
2018,04,23,10,26,13.60
2018,04,23,10,27,13.60
2018,04,23,10,28,13.60
2018,04,23,10,29,13.60
2018,04,23,10,30,13.60
2018,04,23,10,31,13.60
2018,04,23,10,32,13.60
2018,04,23,10,33,13.60
2018,04,23,10,34,13.60
2018,04,23,10,35,13.70
2018,04,23,10,36,13.80
2018,04,23,10,37,13.80
2018,04,23,10,38,13.90
2018,04,23,10,39,14.10
2018,04,23,10,40,14.20
2018,04,23,10,41,14.20
2018,04,23,10,42,14.20
2018,04,23,10,43,14.20
2018,04,23,10,44,14.20
2018,04,23,10,45,14.20
2018,04,23,10,46,14.20
2018,04,23,10,47,14.20
2018,04,23,10,48,14.20
2018,04,23,10,49,14.10
2018,04,23,10,50,14.10
2018,04,23,10,51,14.10
2018,04,23,10,52,14.10
2018,04,23,10,53,14.10
2018,04,23,10,54,14.20
2018,04,23,10,55,14.30
2018,04,23,10,56,14.40
2018,04,23,10,57,14.50
2018,04,23,10,58,14.60
2018,04,23,10,59,14.80
2018,04,23,11,00,14.90
2018,04,23,11,01,14.90
2018,04,23,11,02,14.90
2018,04,23,11,03,14.90
2018,04,23,11,04,14.80
2018,04,23,11,05,14.80
2018,04,23,11,06,14.80
2018,04,23,11,07,14.90
2018,04,23,11,08,15.00
2018,04,23,11,09,15.10
2018,04,23,11,10,15.20
2018,04,23,11,11,15.20
2018,04,23,11,12,15.20
2018,04,23,11,13,15.10
2018,04,23,11,14,15.00
2018,04,23,11,15,15.00
2018,04,23,11,16,14.90
2018,04,23,11,17,14.90
2018,04,23,11,18,14.90
2018,04,23,11,19,14.90
2018,04,23,11,20,15.00
2018,04,23,11,21,15.00
2018,04,23,11,22,15.00
2018,04,23,11,23,14.90
2018,04,23,11,24,14.90
2018,04,23,11,25,14.90
2018,04,23,11,26,14.90
2018,04,23,11,27,15.00
2018,04,23,11,28,15.20
2018,04,23,11,29,15.20
2018,04,23,11,30,15.20
2018,04,23,11,31,15.30
2018,04,23,11,32,15.40
2018,04,23,11,33,15.40
2018,04,23,11,34,15.40
2018,04,23,11,35,15.50
2018,04,23,11,36,15.50
2018,04,23,11,37,15.60
2018,04,23,11,38,15.60
2018,04,23,11,39,15.60
2018,04,23,11,40,15.60
2018,04,23,11,41,15.60
2018,04,23,11,42,15.60
2018,04,23,11,43,15.60
2018,04,23,11,44,15.60
2018,04,23,11,45,15.50
2018,04,23,11,46,15.40
2018,04,23,11,47,15.40
2018,04,23,11,48,15.30
2018,04,23,11,49,15.30
2018,04,23,11,50,15.30
2018,04,23,11,51,15.30
2018,04,23,11,52,15.40
2018,04,23,11,53,15.50
2018,04,23,11,54,15.50
2018,04,23,11,55,15.50
2018,04,23,11,56,15.60
2018,04,23,11,57,15.70
2018,04,23,11,58,15.80
2018,04,23,11,59,15.90
2018,04,23,12,00,15.90
2018,04,23,12,01,15.90
2018,04,23,12,02,15.90
2018,04,23,12,03,15.90
2018,04,23,12,04,15.90
2018,04,23,12,05,15.80
2018,04,23,12,06,15.80
2018,04,23,12,07,15.80
2018,04,23,12,08,15.80
2018,04,23,12,09,15.70
2018,04,23,12,10,15.60
2018,04,23,12,11,15.50
2018,04,23,12,12,15.50
2018,04,23,12,13,15.40
2018,04,23,12,14,15.40
2018,04,23,12,15,15.30
2018,04,23,12,16,15.40
2018,04,23,12,17,15.50
2018,04,23,12,18,15.60
2018,04,23,12,19,15.70
2018,04,23,12,20,15.80
2018,04,23,12,21,16.00
2018,04,23,12,22,16.20
2018,04,23,12,23,16.30
2018,04,23,12,24,16.40
2018,04,23,12,25,16.50
2018,04,23,12,26,16.70
2018,04,23,12,27,16.80
2018,04,23,12,28,16.80
2018,04,23,12,29,16.80
2018,04,23,12,30,16.90
2018,04,23,12,31,16.90
2018,04,23,12,32,17.00
2018,04,23,12,33,17.10
2018,04,23,12,34,17.10
2018,04,23,12,35,17.20
2018,04,23,12,36,17.20
2018,04,23,12,37,17.30
2018,04,23,12,38,17.40
2018,04,23,12,39,17.30
2018,04,23,12,40,17.20
2018,04,23,12,41,17.20
2018,04,23,12,42,17.20
2018,04,23,12,43,17.20
2018,04,23,12,44,17.30
2018,04,23,12,45,17.40
2018,04,23,12,46,17.50
2018,04,23,12,47,17.50
2018,04,23,12,48,17.50
2018,04,23,12,49,17.40
2018,04,23,12,50,17.30
2018,04,23,12,51,17.30
2018,04,23,12,52,17.20
2018,04,23,12,53,17.20
2018,04,23,12,54,17.20
2018,04,23,12,55,17.20
2018,04,23,12,56,17.20
2018,04,23,12,57,17.20
2018,04,23,12,58,17.10
2018,04,23,12,59,17.00
2018,04,23,13,00,17.00
2018,04,23,13,01,16.90
2018,04,23,13,02,16.90
2018,04,23,13,03,16.90
2018,04,23,13,04,16.90
2018,04,23,13,05,16.90
2018,04,23,13,06,17.00
2018,04,23,13,07,17.10
2018,04,23,13,08,17.20
2018,04,23,13,09,17.30
2018,04,23,13,10,17.40
2018,04,23,13,11,17.40
2018,04,23,13,12,17.50
2018,04,23,13,13,17.50
2018,04,23,13,14,17.50
2018,04,23,13,15,17.60
2018,04,23,13,16,17.70
2018,04,23,13,17,17.70
2018,04,23,13,18,17.80
2018,04,23,13,19,17.90
2018,04,23,13,20,17.90
2018,04,23,13,21,17.90
2018,04,23,13,22,17.80
2018,04,23,13,23,17.80
2018,04,23,13,24,17.80
2018,04,23,13,25,17.80
2018,04,23,13,26,17.80
2018,04,23,13,27,17.80
2018,04,23,13,28,17.80
2018,04,23,13,29,17.70
2018,04,23,13,30,17.70
2018,04,23,13,31,17.60
2018,04,23,13,32,17.60
2018,04,23,13,33,17.50
2018,04,23,13,34,17.50
2018,04,23,13,35,17.40
2018,04,23,13,36,17.40
2018,04,23,13,37,17.40
2018,04,23,13,38,17.40
2018,04,23,13,39,17.40
2018,04,23,13,40,17.30
2018,04,23,13,41,17.30
2018,04,23,13,42,17.30
2018,04,23,13,43,17.30
2018,04,23,13,44,17.40
2018,04,23,13,45,17.50
2018,04,23,13,46,17.50
2018,04,23,13,47,17.60
2018,04,23,13,48,17.70
2018,04,23,13,49,17.80
2018,04,23,13,50,17.90
2018,04,23,13,51,17.90
2018,04,23,13,52,18.00
2018,04,23,13,53,18.00
2018,04,23,13,54,18.00
2018,04,23,13,55,18.00
2018,04,23,13,56,17.90
2018,04,23,13,57,17.90
2018,04,23,13,58,17.90
2018,04,23,13,59,17.80
2018,04,23,14,00,17.80
2018,04,23,14,01,17.70
2018,04,23,14,02,17.70
2018,04,23,14,03,17.60
2018,04,23,14,04,17.60
2018,04,23,14,05,17.60
2018,04,23,14,06,17.60
2018,04,23,14,07,17.60
2018,04,23,14,08,17.60
2018,04,23,14,09,17.70
2018,04,23,14,10,17.70
2018,04,23,14,11,17.80
2018,04,23,14,12,17.80
2018,04,23,14,13,17.80
2018,04,23,14,14,17.90
2018,04,23,14,15,17.90
2018,04,23,14,16,17.90
2018,04,23,14,17,17.80
2018,04,23,14,18,17.80
2018,04,23,14,19,17.80
2018,04,23,14,20,17.80
2018,04,23,14,21,17.80
2018,04,23,14,22,17.80
2018,04,23,14,23,17.80
2018,04,23,14,24,17.90
2018,04,23,14,25,18.00
2018,04,23,14,26,18.00
2018,04,23,14,27,18.10
2018,04,23,14,28,18.10
2018,04,23,14,29,18.00
2018,04,23,14,30,18.00
2018,04,23,14,31,17.90
2018,04,23,14,32,17.90
2018,04,23,14,33,17.90
2018,04,23,14,34,17.90
2018,04,23,14,35,17.90
2018,04,23,14,36,17.90
2018,04,23,14,37,17.90
2018,04,23,14,38,17.90
2018,04,23,14,39,17.90
2018,04,23,14,40,17.90
2018,04,23,14,41,18.00
2018,04,23,14,42,18.10
2018,04,23,14,43,18.30
2018,04,23,14,44,18.40
2018,04,23,14,45,18.50
2018,04,23,14,46,18.50
2018,04,23,14,47,18.60
2018,04,23,14,48,18.60
2018,04,23,14,49,18.50
2018,04,23,14,50,18.40
2018,04,23,14,51,18.40
2018,04,23,14,52,18.50
2018,04,23,14,53,18.50
2018,04,23,14,54,18.40
2018,04,23,14,55,18.40
2018,04,23,14,56,18.30
2018,04,23,14,57,18.30
2018,04,23,14,58,18.20
2018,04,23,14,59,18.20
2018,04,23,15,00,18.10
2018,04,23,15,01,18.20
2018,04,23,15,02,18.20
2018,04,23,15,03,18.20
2018,04,23,15,04,18.30
2018,04,23,15,05,18.30
2018,04,23,15,06,18.30
2018,04,23,15,07,18.30
2018,04,23,15,08,18.30
2018,04,23,15,09,18.40
2018,04,23,15,10,18.50
2018,04,23,15,11,18.60
2018,04,23,15,12,18.70
2018,04,23,15,13,18.80
2018,04,23,15,14,18.80
2018,04,23,15,15,18.90
2018,04,23,15,16,19.00
2018,04,23,15,17,19.10
2018,04,23,15,18,19.10
2018,04,23,15,19,19.20
2018,04,23,15,20,19.20
2018,04,23,15,21,19.30
2018,04,23,15,22,19.40
2018,04,23,15,23,19.40
2018,04,23,15,24,19.40
2018,04,23,15,25,19.50
2018,04,23,15,26,19.50
2018,04,23,15,27,19.70
2018,04,23,15,28,19.80
2018,04,23,15,29,19.90
2018,04,23,15,30,20.10
2018,04,23,15,31,20.10
2018,04,23,15,32,20.10
2018,04,23,15,33,20.20
2018,04,23,15,34,20.20
2018,04,23,15,35,20.30
2018,04,23,15,36,20.30
2018,04,23,15,37,20.30
2018,04,23,15,38,20.30
2018,04,23,15,39,20.10
2018,04,23,15,40,19.90
2018,04,23,15,41,19.80
2018,04,23,15,42,19.60
2018,04,23,15,43,19.40
2018,04,23,15,44,19.30
2018,04,23,15,45,19.30
2018,04,23,15,46,19.20
2018,04,23,15,47,19.20
2018,04,23,15,48,19.20
2018,04,23,15,49,19.20
2018,04,23,15,50,19.20
2018,04,23,15,51,19.20
2018,04,23,15,52,19.20
2018,04,23,15,53,19.30
2018,04,23,15,54,19.30
2018,04,23,15,55,19.30
2018,04,23,15,56,19.30
2018,04,23,15,57,19.20
2018,04,23,15,58,19.10
2018,04,23,15,59,19.00
2018,04,23,16,00,19.00
2018,04,23,16,01,19.00
2018,04,23,16,02,19.10
2018,04,23,16,03,19.20
2018,04,23,16,04,19.30
2018,04,23,16,05,19.30
2018,04,23,16,06,19.30
2018,04,23,16,07,19.30
2018,04,23,16,08,19.30
2018,04,23,16,09,19.30
2018,04,23,16,10,19.30
2018,04,23,16,11,19.20
2018,04,23,16,12,19.10
2018,04,23,16,13,19.10
2018,04,23,16,14,19.20
2018,04,23,16,15,19.20
2018,04,23,16,16,19.20
2018,04,23,16,17,19.20
2018,04,23,16,18,19.20
2018,04,23,16,19,19.10
2018,04,23,16,20,19.10
2018,04,23,16,21,19.10
2018,04,23,16,22,19.10
2018,04,23,16,23,19.10
2018,04,23,16,24,19.10
2018,04,23,16,25,19.20
2018,04,23,16,26,19.20
2018,04,23,16,27,19.20
2018,04,23,16,28,19.20
2018,04,23,16,29,19.30
2018,04,23,16,30,19.30
2018,04,23,16,31,19.20
2018,04,23,16,32,19.20
2018,04,23,16,33,19.10
2018,04,23,16,34,19.10
2018,04,23,16,35,19.10
2018,04,23,16,36,19.10
2018,04,23,16,37,19.10
2018,04,23,16,38,19.20
2018,04,23,16,39,19.20
2018,04,23,16,40,19.20
2018,04,23,16,41,19.30
2018,04,23,16,42,19.30
2018,04,23,16,43,19.40
2018,04,23,16,44,19.40
2018,04,23,16,45,19.40
2018,04,23,16,46,19.40
2018,04,23,16,47,19.30
2018,04,23,16,48,19.30
2018,04,23,16,49,19.30
2018,04,23,16,50,19.30
2018,04,23,16,51,19.30
2018,04,23,16,52,19.30
2018,04,23,16,53,19.30
2018,04,23,16,54,19.30
2018,04,23,16,55,19.30
2018,04,23,16,56,19.30
2018,04,23,16,57,19.30
2018,04,23,16,58,19.20
2018,04,23,16,59,19.10
2018,04,23,17,00,19.10
2018,04,23,17,01,19.10
2018,04,23,17,02,19.10
2018,04,23,17,03,19.10
2018,04,23,17,04,19.20
2018,04,23,17,05,19.20
2018,04,23,17,06,19.20
2018,04,23,17,07,19.10
2018,04,23,17,08,19.00
2018,04,23,17,09,19.00
2018,04,23,17,10,19.00
2018,04,23,17,11,18.90
2018,04,23,17,12,18.90
2018,04,23,17,13,18.90
2018,04,23,17,14,18.80
2018,04,23,17,15,18.80
2018,04,23,17,16,18.80
2018,04,23,17,17,18.80
2018,04,23,17,18,18.80
2018,04,23,17,19,18.90
2018,04,23,17,20,18.90
2018,04,23,17,21,18.90
2018,04,23,17,22,18.90
2018,04,23,17,23,18.90
2018,04,23,17,24,18.90
2018,04,23,17,25,18.80
2018,04,23,17,26,18.80
2018,04,23,17,27,18.70
2018,04,23,17,28,18.70
2018,04,23,17,29,18.70
2018,04,23,17,30,18.70
2018,04,23,17,31,18.70
2018,04,23,17,32,18.70
2018,04,23,17,33,18.70
2018,04,23,17,34,18.70
2018,04,23,17,35,18.60
2018,04,23,17,36,18.60
2018,04,23,17,37,18.60
2018,04,23,17,38,18.50
2018,04,23,17,39,18.40
2018,04,23,17,40,18.40
2018,04,23,17,41,18.40